When you browse on this site, cookies collect data to enhance your experience and personalize the content and advertising you see.
Visit our Privacy Policy to learn more. By continuing to use the site, you agree to this use of cookies and data.

Hourly Weather Halhgol

Today, 15 July, Wednesday

Time Temperature Precipitation Wind Pressure Humidity
00:00 +21°C° 0 mm 2 mps 696 mmHg 75%
01:00 +21°C° 0 mm 2 mps 695 mmHg 76%
02:00 +21°C° 0 mm 2 mps 695 mmHg 74%
03:00 +20°C° 0.1 mm 2 mps 695 mmHg 75%
04:00 +20°C° 0.1 mm 2 mps 695 mmHg 76%
05:00 +20°C° 0.1 mm 2 mps 695 mmHg 77%
06:00 +23°C° 0.1 mm 2 mps 695 mmHg 71%
07:00 +25°C° 0.1 mm 2 mps 696 mmHg 65%
08:00 +27°C° 0.1 mm 2 mps 696 mmHg 60%
09:00 +28°C° 0 mm 2 mps 696 mmHg 54%
10:00 +30°C° 0 mm 3 mps 696 mmHg 48%
11:00 +33°C° 0 mm 3 mps 696 mmHg 42%
12:00 +33°C° 0 mm 3 mps 695 mmHg 39%
13:00 +34°C° 0 mm 3 mps 695 mmHg 37%
14:00 +35°C° 0 mm 3 mps 694 mmHg 34%
15:00 +34°C° 0 mm 3 mps 694 mmHg 36%
16:00 +34°C° 0 mm 3 mps 694 mmHg 37%
17:00 +34°C° 0 mm 3 mps 694 mmHg 38%
18:00 +31°C° 0 mm 3 mps 694 mmHg 43%
19:00 +29°C° 0 mm 3 mps 693 mmHg 48%
20:00 +27°C° 0 mm 2 mps 693 mmHg 53%
21:00 +26°C° 0 mm 2 mps 693 mmHg 56%
22:00 +25°C° 0 mm 2 mps 693 mmHg 59%
23:00 +24°C° 0 mm 2 mps 693 mmHg 62%

Tomorrow, 16 July, Thursday

Time Temperature Precipitation Wind Pressure Humidity
00:00 +24°C° 0 mm 3 mps 692 mmHg 65%
01:00 +22°C° 0 mm 3 mps 692 mmHg 68%
02:00 +22°C° 0 mm 3 mps 692 mmHg 71%
03:00 +21°C° 0 mm 3 mps 692 mmHg 72%
04:00 +21°C° 0 mm 3 mps 692 mmHg 73%
05:00 +21°C° 0 mm 3 mps 692 mmHg 74%
06:00 +24°C° 0 mm 3 mps 692 mmHg 68%
07:00 +26°C° 0 mm 3 mps 692 mmHg 61%
08:00 +28°C° 0 mm 4 mps 692 mmHg 55%
09:00 +30°C° 0 mm 4 mps 692 mmHg 48%
10:00 +33°C° 0 mm 4 mps 692 mmHg 41%
11:00 +35°C° 0 mm 4 mps 692 mmHg 35%
12:00 +36°C° 0 mm 4 mps 692 mmHg 31%
13:00 +37°C° 0 mm 4 mps 692 mmHg 28%
14:00 +38°C° 0 mm 4 mps 692 mmHg 25%
15:00 +36°C° 0.1 mm 5 mps 691 mmHg 31%
16:00 +34°C° 0.1 mm 7 mps 691 mmHg 38%
17:00 +31°C° 0.1 mm 8 mps 690 mmHg 44%
18:00 +28°C° 0.4 mm 6 mps 691 mmHg 53%
19:00 +26°C° 0.4 mm 4 mps 691 mmHg 61%
20:00 +25°C° 0.4 mm 3 mps 691 mmHg 70%
21:00 +24°C° 0.2 mm 3 mps 691 mmHg 72%
22:00 +22°C° 0.2 mm 3 mps 691 mmHg 74%
23:00 +23°C° 0.2 mm 2 mps 692 mmHg 76%

Day after tomorrow, 17 July, Friday

Time Temperature Precipitation Wind Pressure Humidity
00:00 +21°C° 0.7 mm 2 mps 691 mmHg 79%
01:00 +21°C° 0.7 mm 2 mps 691 mmHg 81%
02:00 +21°C° 0.7 mm 2 mps 691 mmHg 84%
03:00 +22°C° 0 mm 1 mps 691 mmHg 84%
04:00 +22°C° 0 mm 1 mps 691 mmHg 85%
05:00 +21°C° 0 mm 1 mps 691 mmHg 85%
06:00 +23°C° 0 mm 2 mps 691 mmHg 80%
07:00 +24°C° 0 mm 3 mps 692 mmHg 75%
08:00 +26°C° 0 mm 3 mps 692 mmHg 69%
09:00 +27°C° 0 mm 4 mps 692 mmHg 64%
10:00 +28°C° 0 mm 4 mps 693 mmHg 58%
11:00 +30°C° 0 mm 5 mps 693 mmHg 53%
12:00 +28°C° 0.3 mm 5 mps 693 mmHg 56%
13:00 +27°C° 0.3 mm 6 mps 692 mmHg 59%
14:00 +24°C° 0.3 mm 6 mps 692 mmHg 63%
15:00 +22°C° 1.1 mm 6 mps 692 mmHg 70%
16:00 +20°C° 1.1 mm 5 mps 692 mmHg 77%
17:00 +18°C° 1.1 mm 4 mps 693 mmHg 84%
18:00 +18°C° 0.7 mm 3 mps 693 mmHg 87%
19:00 +17°C° 0.7 mm 3 mps 693 mmHg 91%
20:00 +16°C° 0.7 mm 2 mps 694 mmHg 94%
21:00 +16°C° 0.1 mm 2 mps 694 mmHg 94%
22:00 +16°C° 0.1 mm 1 mps 694 mmHg 94%
23:00 +16°C° 0.1 mm 1 mps 694 mmHg 93%

18 July, Saturday

Time Temperature Precipitation Wind Pressure Humidity
00:00 +16°C° 0.3 mm 1 mps 694 mmHg 94%
01:00 +16°C° 0.3 mm 1 mps 694 mmHg 94%
02:00 +16°C° 0.3 mm 1 mps 694 mmHg 94%
03:00 +16°C° 0 mm 1 mps 694 mmHg 94%
04:00 +16°C° 0 mm 1 mps 694 mmHg 94%
05:00 +15°C° 0 mm 1 mps 694 mmHg 94%
06:00 +16°C° 0 mm 1 mps 694 mmHg 88%
07:00 +18°C° 0 mm 1 mps 695 mmHg 83%
08:00 +17°C° 0 mm 0 mps 695 mmHg 78%
09:00 +19°C° 0 mm 0 mps 695 mmHg 70%
10:00 +21°C° 0 mm 0 mps 695 mmHg 63%
11:00 +23°C° 0 mm 0 mps 695 mmHg 55%
12:00 +24°C° 0 mm 0 mps 695 mmHg 52%
13:00 +27°C° 0 mm 1 mps 695 mmHg 49%
14:00 +28°C° 0 mm 1 mps 695 mmHg 46%
15:00 +28°C° 0 mm 1 mps 695 mmHg 46%
16:00 +28°C° 0 mm 1 mps 695 mmHg 46%
17:00 +28°C° 0 mm 1 mps 695 mmHg 47%
18:00 +27°C° 0 mm 1 mps 695 mmHg 52%
19:00 +25°C° 0 mm 2 mps 695 mmHg 57%
20:00 +24°C° 0 mm 2 mps 695 mmHg 63%
21:00 +22°C° 0.4 mm 3 mps 695 mmHg 65%
22:00 +20°C° 0.4 mm 3 mps 695 mmHg 66%
23:00 +19°C° 0.4 mm 4 mps 695 mmHg 68%

19 July, Sunday

Time Temperature Precipitation Wind Pressure Humidity
00:00 +18°C° 0.5 mm 4 mps 695 mmHg 74%
01:00 +15°C° 0.5 mm 4 mps 694 mmHg 80%
02:00 +14°C° 0.5 mm 4 mps 694 mmHg 86%
03:00 +14°C° 0.3 mm 3 mps 694 mmHg 87%
04:00 +14°C° 0.3 mm 3 mps 694 mmHg 88%
05:00 +15°C° 0.3 mm 2 mps 694 mmHg 90%
06:00 +14°C° 0.4 mm 3 mps 695 mmHg 90%
07:00 +14°C° 0.4 mm 3 mps 695 mmHg 90%
08:00 +14°C° 0.4 mm 3 mps 695 mmHg 91%
09:00 +16°C° 0.2 mm 3 mps 695 mmHg 88%
10:00 +17°C° 0.2 mm 3 mps 695 mmHg 85%
11:00 +18°C° 0.2 mm 3 mps 695 mmHg 82%
12:00 +19°C° 0.1 mm 3 mps 695 mmHg 79%
13:00 +20°C° 0.1 mm 3 mps 695 mmHg 76%
14:00 +21°C° 0.1 mm 4 mps 696 mmHg 73%
15:00 +22°C° 0 mm 3 mps 695 mmHg 71%
16:00 +22°C° 0 mm 3 mps 695 mmHg 70%
17:00 +24°C° 0 mm 3 mps 695 mmHg 68%
18:00 +22°C° 0 mm 3 mps 695 mmHg 73%
19:00 +20°C° 0 mm 3 mps 695 mmHg 77%
20:00 +19°C° 0 mm 3 mps 695 mmHg 82%
21:00 +19°C° 0.1 mm 3 mps 695 mmHg 83%
22:00 +19°C° 0.1 mm 3 mps 695 mmHg 85%
23:00 +18°C° 0.1 mm 3 mps 695 mmHg 87%

20 July, Monday

Time Temperature Precipitation Wind Pressure Humidity
00:00 +18°C° 0.7 mm 2 mps 694 mmHg 87%
01:00 +18°C° 0.7 mm 2 mps 694 mmHg 88%
02:00 +18°C° 0.7 mm 2 mps 694 mmHg 89%
03:00 +18°C° 0.4 mm 2 mps 694 mmHg 90%
04:00 +18°C° 0.4 mm 2 mps 694 mmHg 91%
05:00 +18°C° 0.4 mm 2 mps 694 mmHg 92%
06:00 +18°C° 0.4 mm 2 mps 694 mmHg 91%
07:00 +18°C° 0.4 mm 2 mps 694 mmHg 89%
08:00 +18°C° 0.4 mm 2 mps 694 mmHg 88%
09:00 +19°C° 0.2 mm 2 mps 694 mmHg 86%
10:00 +20°C° 0.2 mm 1 mps 694 mmHg 83%
11:00 +21°C° 0.2 mm 1 mps 694 mmHg 81%
12:00 +20°C° 0.7 mm 2 mps 694 mmHg 80%
13:00 +20°C° 0.7 mm 3 mps 693 mmHg 79%
14:00 +21°C° 0.7 mm 4 mps 693 mmHg 77%
15:00 +20°C° 0.7 mm 3 mps 693 mmHg 80%
16:00 +20°C° 0.7 mm 3 mps 693 mmHg 82%
17:00 +19°C° 0.7 mm 2 mps 692 mmHg 84%
18:00 +19°C° 0.3 mm 2 mps 692 mmHg 86%
19:00 +18°C° 0.3 mm 2 mps 692 mmHg 88%
20:00 +18°C° 0.3 mm 2 mps 692 mmHg 90%
21:00 +18°C° 0.3 mm 2 mps 692 mmHg 90%
22:00 +17°C° 0.3 mm 2 mps 692 mmHg 89%
23:00 +17°C° 0.3 mm 2 mps 692 mmHg 89%
Show more